IRIDIUM 33 DEB, 39778

Orbit data source: Space-Track

IRIDIUM 33 DEB, 39778 is space debris in LEO originally from a launch on Sun, 14 Sep 1997 UTC launched from the Tyuratam Missile And Space Complex (TTMTR). The debris from Iridium 33, an American commercial communications satellite, has been tracked extensively since its accidental collision with the defunct Russian satellite Cosmos 2251 in 2009. This event, occurring at high speed in low Earth orbit (LEO), generated thousands of pieces of space debris, significantly increasing the risk of further collisions. The Iridium 33 debris cloud has impacted space traffic management and orbital debris mitigation strategies, making it a subject of ongoing study in space situational awareness.

Loading next visibility...
IRIDIUM 33 DEB details
Identifier
39778, 1997-051AAK
Orbit
LEO
Last TLE update12 hours ago
Origin
Flag of USIridium (US)
ManufacturerUnknown
MissionSpacecraft
Bus & MotorUnknown
MassUnknown
Launch date (UTC)
1997-09-14 (27 years ago)
Launch vehicleUnknown
Launch site
Tyuratam Missile And Space Complex (TTMTR)
Object type
Payload
Rocket body
Debris
Shape & HBRUnknown
Radar Cross SectionSmall (<0.1 m²)

Expand to show TLE details & history

TLE from 12 hours ago
0 IRIDIUM 33 DEB
1 39778U 97051AAK 24346.85505629  .00005662  00000-0  14563-2 0  9995
2 39778  86.3824 201.4433 0007794 158.6346 201.5186 14.50021251553821
Epoch: 2024-12-11T20:31Z
Definitive object data (Epoch: 2024-12-11T20:31:16.863Z)
Latitude0.00003°
Longitude172.57928°
Altitude733.805 km
Speed7.485 km/s
True Right ascension13h 25m 46s
True Declination0° 00' 00"
Sunlit
Object was in daylight at TLE epoch
Visualization TLE readout
Latitude10.45689°
Longitude-8.30762°
Altitude722.476 km
Speed7.498 km/s
Apparent Right ascension23h 01m 05s
Apparent Declination-18° 12' 38"
Sunlit
Object is in full shadow
Visualization observer readout
Local Sidereal Time07:19:21
Azimuth277.727° WNW
Elevation-37.872°
Doppler factor1
Orbital elements
Apogee altitude728.056 km
Perigee altitude716.987 km
Semi-major axis7,100.659 km
Eccentricity0.0007794
Inclination86.3824°
RAAN201.4433°
Arg. of periapsis158.6346°
True anomaly201.48587°
Mean anomaly201.5186°
Eccentric anomaly201.50223°
Mean motion3.6274 °/min
BSTAR0.0014563
Orbital period99.24 mins
Loading maneuver chart data...

IRIDIUM 33 DEB Visibility forecast

Observer location: undefined°, undefined

Span
Click to sort rows by Start time (UTC) header in descending order
Start Az.
Max El. time (UTC)
Max El. Az.
Max El.
End time (UTC)
End Az.
9 mins2024-12-12 14:50:37.146Z169.858° S2024-12-12 14:55:37.146Z73.007° E41.85°2024-12-12 14:59:37.146Z10.12° NNE
7 mins2024-12-13 02:55:37.146Z344.824° N2024-12-13 02:58:37.146Z268.877° W41.488°2024-12-13 03:02:37.146Z192.901° SSW
|